Wind_Speed
25 26 27 20 11 8 9 14 17 18 16 15 13 14 20 18 16 16 15 12 10 19 15 11 10 7 4 4 11 12 11 9 7 5 4 3 2 3 3 3 4 5 6
20 24 24 17 16 11 12 9 14 17 18 16 16 16 22 19 17 14 15 11 14 18 15 12 12 14 10 5 2 8 9 7 5 4 3 2 1 1 2 3 5 5 5
13 16 18 19 19 16 16 16 13 13 17 20 19 20 24 22 19 17 15 15 18 23 15 13 15 14 15 8 4 9 9 6 5 4 3 2 1 1 2 2 3 5 4
12 12 17 15 22 29 21 23 19 22 23 25 25 23 24 22 20 18 16 15 21 15 14 14 16 14 14 6 5 8 7 4 3 2 1 2 2 4 4 6 7 7 6
13 11 17 19 26 27 25 25 22 26 27 30 27 25 25 20 19 17 15 21 24 20 17 18 17 16 11 4 2 5 4 3 2 2 3 3 4 4 4 4 4 5 7
12 12 13 18 25 28 25 24 26 30 32 34 32 27 24 22 20 19 17 22 23 19 20 20 19 17 10 8 3 4 3 4 4 5 5 6 6 6 7 6 6 7 7
14 13 14 17 23 24 23 33 32 36 35 31 30 27 23 24 23 22 24 26 24 24 24 23 22 19 14 12 10 11 9 8 8 8 7 7 8 8 7 6 5 6 10
20 16 16 16 20 22 24 24 32 32 28 29 28 25 24 22 23 26 27 23 27 25 24 28 24 20 15 11 13 12 12 10 11 11 10 10 10 10 9 7 6 8 10
16 19 19 20 19 22 22 26 27 35 28 31 33 25 12 11 27 28 26 27 27 28 27 32 29 21 18 14 12 14 15 12 12 13 13 13 12 12 11 9 9 10 11
12 15 16 18 17 22 25 26 27 29 30 32 36 37 24 19 18 18 32 34 37 34 32 31 27 26 22 21 16 15 14 14 13 14 15 14 14 14 14 15 15 15 15
12 16 19 21 22 20 24 25 27 30 30 33 40 37 34 25 22 23 26 28 37 37 40 34 32 28 24 21 18 18 17 16 16 16 17 16 17 18 18 17 18 18 18
14 17 17 23 24 18 23 24 25 27 33 32 35 34 38 39 30 24 23 30 32 33 30 36 36 29 27 24 20 18 18 19 18 17 17 18 20 20 19 20 20 19 18
16 17 18 20 21 27 24 24 24 26 28 30 28 33 34 35 33 27 21 19 25 33 31 32 34 33 31 26 22 21 20 20 20 19 19 20 21 20 21 21 19 19 20
19 19 20 22 19 22 27 24 24 28 28 25 31 30 32 33 33 30 28 24 20 26 32 32 31 32 32 27 25 23 21 21 21 21 21 21 21 21 21 20 20 21 21
23 23 23 23 22 21 23 26 26 25 25 24 26 28 25 31 29 33 32 31 27 23 28 30 28 27 26 33 28 23 21 24 22 21 22 21 20 21 20 21 21 20 19
23 21 22 20 23 21 21 24 24 24 24 23 24 26 25 22 26 27 25 29 28 27 20 25 27 26 25 23 22 23 23 21 21 21 21 20 19 19 19 19 20 20 19
18 17 20 19 21 22 21 22 23 26 25 22 23 26 26 22 22 23 28 24 28 30 20 20 23 24 22 21 20 19 19 20 20 19 19 18 17 18 18 19 19 18 19
20 14 21 18 20 23 24 22 21 23 24 24 25 19 23 22 19 20 24 23 31 29 28 24 23 21 18 20 20 19 18 20 18 17 15 16 16 17 18 18 19 18 17
18 16 15 16 18 18 20 18 20 20 20 21 21 22 22 19 20 21 19 23 28 31 26 26 26 25 24 22 21 20 19 18 15 14 14 15 16 17 17 17 17 18 17
19 17 20 20 14 14 17 21 20 19 16 17 18 18 20 19 18 17 18 21 27 31 28 26 26 25 23 21 20 19 16 14 14 14 14 16 16 15 16 17 16 17 18
18 18 13 13 17 17 15 16 17 17 20 19 19 17 16 18 16 14 14 18 23 26 26 24 24 22 20 21 21 17 15 12 11 14 14 14 13 14 14 14 16 17 17
17 15 17 15 14 18 15 19 15 16 17 17 19 15 15 18 16 16 18 18 21 23 20 19 20 17 20 18 15 13 12 14 12 13 12 11 12 11 13 15 15 15 12
16 16 14 15 15 16 17 17 16 17 16 16 17 18 17 14 17 15 17 20 22 20 15 15 17 17 15 12 10 13 12 10 11 11 10 9 10 10 13 14 11 10 14
13 12 11 13 15 14 15 17 18 20 20 17 17 16 15 14 18 18 24 27 23 19 17 15 13 12 11 11 9 8 7 8 9 9 8 8 10 10 12 10 4 12 14
10 10 10 11 11 11 14 17 17 18 17 17 17 16 15 15 18 22 26 27 24 19 17 16 14 11 7 7 6 5 6 7 7 8 7 9 11 12 9 4 8 15 14
9 7 6 7 9 12 14 13 16 19 20 20 18 16 16 19 24 25 25 19 20 21 17 14 11 9 8 6 6 5 5 5 6 7 6 7 8 11 7 5 11 13 19
Wind_Direction
235 227 225 222 204 228 192 193 188 188 199 201 200 207 193 199 209 214 226 224 225 189 180 167 153 141 113 116 160 154 136 133 131 121 115 106 91 84 67 46 36 47 47
250 248 203 189 201 193 171 173 184 187 196 207 204 201 205 209 219 222 203 228 211 201 181 167 166 155 151 141 181 179 152 147 143 142 140 134 114 42 8 15 29 27 19
280 270 241 220 244 207 182 179 198 217 205 208 213 214 212 208 218 222 235 240 231 203 183 183 175 168 154 157 336 168 157 160 163 166 175 188 229 261 296 339 343 349 24
297 249 239 246 232 207 218 227 249 217 220 213 214 218 209 207 212 221 229 222 203 184 181 191 184 180 173 178 327 190 171 170 183 206 236 280 302 311 318 322 327 345 355
292 293 232 240 223 232 223 242 241 228 212 207 215 214 212 202 206 214 224 205 200 200 195 188 190 188 193 221 284 178 173 191 233 264 289 301 305 304 304 307 313 339 327
273 286 239 229 236 233 249 241 233 216 214 211 208 213 210 215 225 220 225 214 214 217 200 193 196 197 217 215 256 250 254 265 276 284 292 299 301 303 303 307 318 321 319
256 258 262 244 237 242 253 230 217 213 208 211 210 210 201 208 216 218 219 218 212 217 215 213 210 209 221 224 234 262 268 278 282 286 290 294 296 298 295 293 296 304 306
234 241 258 269 245 240 245 245 231 226 222 216 207 215 190 193 213 209 212 225 214 212 221 212 211 216 233 241 244 244 270 280 283 286 289 289 290 292 293 294 287 291 299
231 238 244 249 258 243 238 248 228 234 225 225 224 206 187 202 204 214 217 222 223 219 219 218 209 218 223 227 250 247 267 277 280 284 285 284 287 287 290 293 291 291 296
244 252 250 251 260 250 238 238 241 239 232 225 216 213 213 207 191 211 218 224 224 222 208 216 215 218 221 224 233 244 256 266 274 276 277 279 282 283 286 286 291 294 297
277 255 250 253 252 254 242 238 240 231 238 237 237 219 225 230 215 214 213 211 203 212 204 215 218 215 218 229 240 251 253 257 266 269 272 277 277 284 289 292 291 294 298
269 269 260 251 247 243 251 241 237 242 239 232 234 237 233 219 214 209 210 219 222 217 208 205 205 211 222 231 237 246 258 260 265 266 268 274 276 286 292 291 292 293 294
256 266 269 261 254 249 246 243 246 243 237 242 239 233 235 229 238 227 223 220 222 227 230 213 210 215 218 228 239 249 256 265 265 265 269 270 280 286 286 288 291 292 294
289 259 260 258 257 249 245 243 238 236 240 238 237 242 241 242 252 242 248 236 228 225 228 226 225 226 230 233 239 246 253 262 264 266 267 271 277 280 286 288 290 293 295
281 266 252 255 247 248 245 240 238 236 239 238 241 247 247 248 253 242 243 248 231 228 227 229 236 232 253 254 246 252 254 262 265 267 270 272 276 283 284 286 288 294 298
293 268 249 252 247 243 241 240 240 243 233 229 236 245 242 238 248 249 255 246 242 223 227 230 226 241 236 237 243 251 256 268 272 268 268 271 275 277 285 290 293 295 296
292 262 261 242 246 248 236 233 237 237 234 238 233 239 241 232 248 246 240 256 244 238 238 230 239 231 233 240 243 246 257 264 266 268 266 269 280 286 289 290 292 295 299
275 273 272 244 241 238 236 232 237 238 228 234 238 240 235 243 250 239 244 259 238 238 240 236 223 216 224 228 233 240 248 254 260 257 263 275 282 289 289 289 293 298 299
268 276 262 246 245 248 241 232 228 231 228 231 238 235 233 246 244 240 248 256 246 237 235 238 218 217 217 221 224 234 243 252 252 261 277 282 283 284 287 294 297 296 301
275 256 252 258 247 228 245 230 222 218 220 222 229 239 237 240 242 239 250 251 239 229 223 219 220 216 215 219 226 229 235 234 254 264 268 279 283 288 290 291 293 299 302
276 253 255 249 243 238 240 245 227 233 225 219 220 229 228 227 225 232 241 244 226 221 219 216 215 205 213 229 227 222 229 244 252 261 272 279 283 287 288 290 296 300 302
286 253 246 239 246 240 244 234 230 243 222 220 222 224 230 225 226 224 224 229 225 224 206 204 205 228 233 218 214 220 221 228 249 265 265 275 286 287 290 298 304 306 303
283 254 242 237 241 241 230 228 237 230 225 224 226 223 220 224 224 216 204 200 196 194 216 241 239 219 205 201 201 208 220 238 249 262 275 283 284 297 301 305 305 307 312
276 261 246 247 247 239 232 231 221 218 209 212 212 213 218 224 208 212 195 188 185 185 190 183 183 184 176 187 203 220 223 235 252 265 278 285 292 311 304 298 294 325 320
280 272 252 245 240 230 228 216 212 201 201 202 200 201 207 209 204 192 188 187 183 177 167 161 159 171 192 201 194 209 229 240 256 271 287 298 311 318 312 226 336 328 324
279 256 236 237 224 212 216 205 198 198 201 191 191 186 186 190 186 186 176 180 175 164 166 171 166 165 165 187 203 219 227 240 263 278 278 316 327 339 320 237 334 336 335
Height
1521 1521 1524 1528 1529 1533 1535 1535 1536 1540 1542 1544 1546 1549 1552 1552 1554 1555 1556 1557 1558 1559 1559 1560 1562 1563 1563 1564 1565 1566 1566 1566 1566 1567 1568 1569 1569 1568 1568 1568 1568 1568 1568
1520 1522 1508 1511 1526 1527 1534 1535 1538 1537 1540 1542 1544 1546 1548 1550 1552 1553 1554 1556 1557 1559 1559 1560 1561 1563 1563 1563 1563 1564 1565 1565 1566 1566 1567 1568 1568 1568 1568 1568 1568 1567 1566
1518 1517 1514 1515 1519 1526 1529 1529 1534 1538 1537 1538 1543 1542 1543 1546 1550 1551 1552 1554 1555 1557 1558 1559 1560 1562 1564 1564 1563 1564 1564 1565 1566 1566 1566 1567 1567 1567 1567 1567 1566 1566 1566
1516 1516 1518 1517 1519 1522 1526 1522 1526 1529 1532 1536 1537 1540 1540 1542 1546 1549 1550 1551 1552 1553 1556 1557 1558 1560 1562 1562 1561 1562 1564 1565 1566 1566 1565 1566 1566 1566 1566 1565 1565 1565 1565
1513 1514 1516 1517 1517 1520 1519 1519 1522 1526 1525 1530 1535 1536 1538 1540 1544 1546 1548 1549 1550 1551 1554 1556 1557 1558 1560 1561 1561 1562 1563 1564 1565 1565 1565 1565 1564 1564 1564 1564 1563 1563 1563
1510 1510 1512 1514 1515 1513 1516 1517 1518 1521 1523 1525 1530 1532 1533 1536 1541 1543 1545 1548 1549 1549 1551 1552 1555 1557 1558 1560 1561 1562 1562 1563 1564 1564 1564 1564 1563 1563 1562 1562 1562 1561 1561
1506 1506 1507 1510 1510 1510 1512 1511 1513 1515 1517 1520 1522 1527 1529 1531 1534 1539 1541 1544 1546 1547 1548 1550 1552 1555 1556 1557 1559 1560 1560 1560 1562 1562 1562 1562 1561 1561 1560 1559 1559 1559 1558
1501 1501 1502 1503 1505 1505 1507 1509 1509 1512 1513 1515 1518 1521 1524 1527 1530 1535 1537 1539 1541 1542 1543 1546 1548 1551 1553 1554 1556 1557 1558 1558 1559 1560 1560 1560 1559 1559 1559 1559 1557 1556 1554
1497 1498 1498 1499 1500 1501 1503 1503 1505 1509 1509 1513 1515 1519 1518 1519 1524 1529 1531 1535 1538 1539 1540 1540 1543 1547 1551 1551 1551 1554 1556 1557 1556 1557 1557 1558 1557 1556 1555 1556 1555 1552 1550
1493 1493 1494 1495 1495 1496 1498 1499 1501 1504 1503 1506 1511 1512 1514 1517 1518 1523 1527 1529 1532 1535 1535 1536 1539 1543 1546 1548 1549 1552 1552 1553 1553 1553 1554 1555 1555 1554 1551 1551 1550 1548 1546
1489 1490 1490 1490 1491 1491 1493 1495 1496 1497 1501 1503 1504 1507 1508 1512 1514 1517 1519 1521 1525 1527 1528 1531 1534 1537 1540 1545 1546 1548 1549 1549 1549 1549 1550 1549 1551 1550 1548 1547 1546 1543 1542
1485 1485 1485 1485 1485 1485 1486 1489 1491 1494 1496 1498 1502 1501 1505 1506 1509 1511 1514 1518 1522 1524 1525 1525 1528 1531 1536 1540 1542 1544 1544 1545 1546 1545 1546 1546 1546 1546 1543 1543 1541 1539 1536
1479 1479 1480 1479 1479 1479 1481 1483 1485 1488 1490 1493 1495 1498 1501 1500 1506 1509 1511 1515 1516 1521 1523 1523 1526 1527 1531 1533 1537 1539 1540 1540 1541 1542 1541 1540 1541 1540 1539 1539 1537 1534 1531
1473 1473 1473 1473 1473 1474 1475 1477 1480 1482 1485 1487 1490 1493 1496 1499 1502 1503 1507 1510 1512 1515 1518 1519 1521 1523 1527 1528 1531 1533 1535 1535 1537 1537 1536 1535 1535 1534 1534 1532 1530 1528 1525
1466 1465 1465 1466 1467 1468 1469 1471 1474 1476 1480 1483 1486 1488 1491 1495 1497 1498 1502 1505 1507 1508 1510 1513 1517 1519 1522 1524 1525 1528 1529 1531 1531 1533 1532 1531 1530 1529 1529 1527 1525 1521 1519
1459 1457 1458 1459 1461 1462 1463 1465 1467 1471 1473 1476 1480 1483 1486 1488 1492 1494 1496 1497 1500 1502 1505 1508 1510 1513 1516 1517 1519 1523 1525 1526 1527 1528 1527 1527 1525 1525 1524 1521 1519 1516 1514
1453 1452 1451 1453 1454 1456 1457 1459 1461 1464 1467 1470 1473 1477 1480 1482 1485 1488 1490 1493 1495 1497 1499 1502 1507 1508 1511 1513 1516 1518 1520 1521 1522 1522 1524 1522 1521 1520 1518 1516 1515 1512 1510
1448 1447 1446 1447 1448 1449 1451 1453 1456 1458 1461 1464 1468 1470 1474 1478 1479 1481 1483 1486 1488 1490 1494 1497 1500 1503 1507 1509 1512 1513 1515 1516 1517 1518 1518 1517 1516 1515 1513 1511 1510 1509 1505
1442 1441 1442 1442 1443 1444 1445 1447 1450 1453 1456 1458 1461 1464 1468 1471 1473 1475 1479 1481 1483 1486 1488 1492 1494 1498 1501 1504 1506 1508 1510 1511 1513 1513 1513 1513 1512 1510 1510 1508 1506 1504 1501
1437 1437 1437 1437 1438 1439 1441 1441 1444 1448 1451 1453 1457 1459 1463 1465 1468 1471 1474 1476 1478 1481 1483 1487 1490 1493 1497 1499 1502 1504 1506 1507 1509 1509 1509 1509 1508 1507 1506 1504 1502 1499 1496
1432 1431 1431 1431 1433 1435 1436 1437 1441 1444 1446 1449 1452 1455 1458 1461 1464 1467 1469 1471 1474 1478 1481 1484 1487 1490 1493 1495 1497 1499 1502 1504 1504 1506 1506 1506 1505 1504 1502 1500 1497 1494 1492
1425 1424 1427 1427 1429 1430 1431 1434 1437 1439 1442 1444 1447 1451 1453 1457 1459 1462 1466 1468 1472 1474 1478 1481 1484 1486 1489 1490 1494 1496 1499 1500 1502 1503 1503 1503 1502 1501 1498 1495 1493 1490 1489
1420 1419 1420 1422 1423 1425 1427 1430 1432 1435 1437 1440 1444 1447 1450 1453 1456 1458 1461 1464 1469 1473 1477 1479 1481 1484 1487 1489 1492 1494 1497 1498 1499 1500 1500 1499 1498 1496 1493 1491 1490 1487 1485
1414 1414 1415 1416 1418 1419 1421 1424 1427 1429 1432 1436 1440 1443 1447 1449 1451 1455 1457 1461 1466 1471 1474 1477 1481 1484 1486 1489 1491 1493 1494 1495 1496 1497 1496 1494 1493 1492 1490 1489 1487 1485 1481
1411 1410 1411 1412 1413 1414 1417 1419 1423 1426 1429 1433 1437 1440 1444 1446 1449 1453 1456 1460 1463 1468 1473 1477 1480 1483 1485 1488 1489 1491 1492 1492 1493 1493 1492 1491 1490 1489 1487 1485 1484 1481 1478
1408 1408 1408 1408 1409 1411 1413 1416 1419 1422 1426 1429 1434 1438 1442 1445 1448 1452 1456 1460 1463 1469 1473 1476 1479 1482 1484 1486 1487 1489 1490 1490 1490 1491 1491 1491 1489 1487 1484 1482 1482 1478 1474